Location: Unspecified
(0.0000°N, 0.0000°E)
Time: 19:22:55
(UTC+00:00)

CAS-4A - Visible Passes

Search period start: 19 August 2019 00:00
Search period end: 29 August 2019 00:00
Orbit: 528 x 546 km, 43.0° (Epoch: 18 August)

Date Brightness Start Highest point End Pass type
(mag) Time Alt. Az. Time Alt. Az. Time Alt. Az.
19 Aug ? 19:24:33 10° WSW 19:28:06 28° NW 19:31:38 10° NNE visible
20 Aug ? 19:14:55 10° W 19:17:56 20° NW 19:20:57 10° N visible
21 Aug ? 05:29:05 10° NNW 05:32:52 35° NE 05:36:38 10° ESE visible
21 Aug ? 19:05:41 10° WNW 19:07:48 14° NW 19:09:55 10° NNW visible
22 Aug ? 05:18:40 10° NNW 05:22:42 53° NE 05:26:42 10° ESE visible
23 Aug ? 05:08:24 10° NW 05:12:31 81° NE 05:16:38 10° SE visible
24 Aug ? 04:59:18 17° NW 05:02:20 66° SW 05:06:26 10° SE visible
25 Aug ? 04:51:21 38° WSW 04:52:10 43° SW 04:56:06 10° SSE visible
26 Aug ? 04:43:11 25° SSW 04:43:11 25° SSW 04:45:38 10° SSE visible
27 Aug ? 04:34:44 11° S 04:34:44 11° S 04:34:58 10° S visible
